Location: ????
(30.2663°N, 31.2484°E)
Time: 08:55:46
(UTC+00:00)

Envisat - Pass Details

Date: 27 September 2022
Orbit: 763 x 765 km, 98.2° (Epoch: 28 November)

Event Time Altitude Azimuth Distance (km) Brightness Sun altitude
Rises 02:45:39 0° 1° (N) 3,234 6.3 -13.8°
Reaches altitude 10° 02:48:06 10° 353° (N) 2,305 5.5 -13.3°
Maximum altitude 02:52:43 37° 288° (WNW) 1,184 3.5 -12.3°
Drops below altitude 10° 02:57:19 10° 222° (SW) 2,293 5.0 -11.3°
Sets 02:59:46 0° 214° (SSW) 3,215 5.9 -10.8°
